Regional Weather Roundup
Issued by NWS

Home | Current Version | Previous Version | Graphics & Text | Print | Product List | Glossary On
Versions: 1 2 3 4 5 6 7 8 9 10 11 12 13 14 15 16 17 18 19 20 21 22 23 24 25 26 27 28 29 30 31 32 33 34 35 36 37 38 39 40 41 42 43 44 45 46 47 48 49 50
316
ASUS45 KPSR 220510
RWRAZ

ARIZONA HOURLY REGIONAL WEATHER ROUNDUP
NATIONAL WEATHER SERVICE PHOENIX AZ
1000 PM MST SAT JAN 21 2017

NOTE: FAIR INDICATES FEW OR NO CLOUDS BELOW 12,000 FEET WITH NO
SIGNIFICANT WEATHER AND/OR OBSTRUCTIONS TO VISIBILITY.

AZZ001>003-036-220600-
NORTHWEST ARIZONA

CITY           SKY/WX    TMP DP  RH WIND       PRES   REMARKS
BULLHEAD CITY  PTCLDY    54  36  50 CALM      30.02R
KINGMAN        CLEAR     36  24  62 S10       30.02R WCI  28
$$

AZZ004>008-015-016-018-220600-
NORTH CENTRAL ARIZONA

CITY           SKY/WX    TMP DP  RH WIND       PRES   REMARKS
GRAND CANYON   PTCLDY    12  10  92 CALM      30.01R
WILLIAMS       CLEAR     25  23  93 SW7       30.02R WCI  17
PRESCOTT       CLEAR     31  27  85 SW7       30.04R WCI  24
FLAGSTAFF      PTCLDY    22  21  96 SW8       30.01R WCI  12
PAYSON         PTCLDY    32  30  93 SE3       30.09R
PAGE           CLEAR     38  22  52 NW3       29.97R
$$

AZZ009>014-017-220600-
NORTHEAST ARIZONA

CITY           SKY/WX    TMP DP  RH WIND       PRES   REMARKS
WINSLOW        CLEAR     33  26  75 W8        30.01R WCI  26
SAINT JOHNS    CLEAR     30  24  78 W10       29.99R WCI  21
SHOW LOW       PTCLDY    23  21  93 S10       30.03R WCI  12
$$

AZZ023-220600-
GREATER PHOENIX AREA

CITY           SKY/WX    TMP DP  RH WIND       PRES   REMARKS
PHOENIX        CLEAR     49  38  65 E6        30.06R
BUCKEYE        CLEAR     45  41  87 NE3       30.08R
LUKE AFB       CLEAR     47  39  72 NW5       30.06R
DEER VALLEY    CLEAR     45  38  76 E8        30.06R
SCOTTSDALE     CLEAR     46  37  71 CALM      30.08R
MESA-GATEWAY   PTCLDY    46  37  71 S3        30.08R
$$

AZZ027-028-220600-
SOUTHWEST MARICOPA COUNTY AND PINAL COUNTY

CITY           SKY/WX    TMP DP  RH WIND       PRES   REMARKS
CASA GRANDE    CLEAR     45  38  76 CALM      30.10R
GILA BEND      FAIR      47  40  76 S8        30.08R
$$

AZZ503-504-507>509-220600-
SOUTHEAST ARIZONA

CITY           SKY/WX    TMP DP  RH WIND       PRES   REMARKS
TUCSON         CLEAR     44  32  62 SW3       30.12R
DAVIS-MONTHAN  CLEAR     40  33  75 S3        30.11R
NOGALES        CLEAR     35  28  75 CALM      30.10R
SIERRA VISTA   CLEAR     33  26  73 W3        30.11R
DOUGLAS        CLEAR     36  26  67 N10       30.11R WCI  28
SAFFORD        PTCLDY    42  33  70 NW15      30.04R
$$

AZZ020-021-025-026-031-220600-
SOUTHWEST ARIZONA

CITY           SKY/WX    TMP DP  RH WIND       PRES   REMARKS
YUMA           CLEAR     52  41  66 CALM      30.07R
$$

CAZ031-033-041-043-047-048-061-220600-
SOUTHERN CALIFORNIA

CITY           SKY/WX    TMP DP  RH WIND       PRES   REMARKS
DOWNTOWN L.A.  MOCLDY    56  48  74 CALM      30.09R
L.A. AIRPORT   MOCLDY    56  48  74 SW5       30.09S
SAN DIEGO      MOCLDY    55  45  68 E3        30.15R
BURBANK        MOCLDY    52  45  77 SE6       30.09R
ONTARIO        MOCLDY    50  46  86 W6        30.10R
RIVERSIDE      CLOUDY    51  47  86 CALM      30.11R
PALM SPRINGS   MOCLDY    54  41  61 CALM      30.05R
EL CENTRO NAS  CLEAR     51  39  63 W6        30.08R
IMPERIAL       CLEAR     52  40  63 W7        30.05R
BLYTHE         CLEAR     51  43  74 S8        30.04R
NEEDLES        PTCLDY    52  36  54 W10       30.02R
$$

NVZ020-UTZ003-220600-
SOUTHERN NEVADA-UTAH

CITY           SKY/WX    TMP DP  RH WIND       PRES   REMARKS
LAS VEGAS      PTCLDY    47  31  53 S6        29.98R
SALT LAKE CITY CLOUDY    32  28  85 SE6       29.91R WCI  26
$$

NMZ009-TXZ055-220600-
NEW MEXICO-WEST TEXAS

CITY           SKY/WX    TMP DP  RH WIND       PRES   REMARKS
ALBUQUERQUE    CLOUDY    39  23  52 W8        29.83R WCI  33
EL PASO        CLEAR     43  23  45 W28G44    29.93R
$$


........................KEY........................
SKY/WX - SKY CONDITION/WEATHER
TMP    - TEMPERATURE IN FAHRENHEIT
DP     - DEW POINT IN FAHRENHEIT
RH     - RELATIVE HUMIDITY IN PERCENT
WIND   - DIRECTION AND SPEED IN MILES PER HOUR (MPH)
VRB    - VARIABLE WIND DIRECTION
PRES   - MEAN SEA LEVEL PRESSURE IN INCHES OF MERCURY
         F - FALLING PRESSURE   R - RISING PRESSURE
         S - STEADY PRESSURE
VSB    - VISIBILITY IN MILES
HX     - HEAT INDEX IN FAHRENHEIT
WCI    - WIND CHILL INDEX IN FAHRENHEIT
TC     - TEMPERATURE IN CELSIUS WHICH IS ALSO KNOWN AS
         TEMPERATURE IN CENTIGRADE
AFB    - AIR FORCE BASE
         LUKE AFB IS LUKE AIR FORCE BASE
         DAVIS-MONTHAN IS DAVIS-MONTHAN AIR FORCE BASE
NAS    - NAVAL AIR STATION
         EL CENTRO NAS IS EL CENTRO NAVAL AIR STATION
N/A    - NOT AVAILABLE





USA.gov is the U.S. government's official web portal to all federal, state and local government web resources and services.